Погода в Обухово

Россия / Московская область     55°49′53″N   38°16′10″E
темп.,
°C
ветер,
м/с
пор.,
м/с
влажн.,
%
обл.,
%
осадки,
мм/ч
давл.,
гПа
погр.,
м
7 марта, вс
вс700:00−12юз36920 0.0 1012116
03:00−10ююз5119015 0.0 1009312
06:00−8юз6138894 0.1 1004759
09:00−6юз7148897 1.0 9991032
12:00−3юз81591100 0.8 9951114
15:00−1зюз71393100 2.3 9931037
18:00−5зсз2574100 1.1 994129
21:00−8юз4138176 1.1 995414
8 марта, пн
пн800:00−9юз389275 0.1 995155
03:00−8зюз5128976 0.1 995525
06:00−8зюз4119397 0.0 994520
09:00−8зсз5109293 0.2 996828
12:00−6зсз5983100 0.3 9981089
15:00−5сз5876100 0.6 10011198
18:00−8ссз3986100 0.1 1004409
21:00−12сз389468 0.1 1008187
9 марта, вт
вт900:00−14сз379667 0.0 1010157
03:00−16сз389659 0.0 1012223
06:00−18ссз389743 0.0 1014195
09:00−17ссз379026 0.0 1016354
12:00−14сз368382 0.0 1017571
15:00−12сз467988 0.0 1018751
18:00−15ссз378890 0.0 1018222
21:00−19с239665 0.0 102180
10 марта, ср
ср1000:00−22ссз24950 0.0 102393
03:00−24сз23960 0.0 102444
06:00−25ссз23960 0.0 102538
09:00−21с24890 0.0 1026213
12:00−15ссв12700 0.0 1027477
15:00−12св11670 0.0 1026727
18:00−17юв018015 0.0 102620
21:00−19ююв118717 0.0 102720
11 марта, чт
чт1100:00−20ююв228970 0.0 102621
03:00−21ююв239072 0.0 102632
06:00−21юв369080 0.0 1025128
09:00−17юв488980 0.0 1023279
12:00−12юв599199 0.5 1021494
15:00−9ююв5988100 1.2 1019547
18:00−8юв4995100 0.2 1017343
21:00−5ююз41193100 0.7 1016509